Location: Newark
(54.4000°N, 32.4500°E)
Time: 03:32:32
(UTC+00:00)

ISS - Visible Passes

Search period start: 18 January 2020 00:00
Search period end: 28 January 2020 00:00
Orbit: 415 x 421 km, 51.6° (Epoch: 18 January)

Date Brightness Start Highest point End Pass type
(mag) Time Alt. Az. Time Alt. Az. Time Alt. Az.
22 Jan -1.3 15:54:44 10° SSE 15:55:20 10° SE 15:55:20 10° SE visible
23 Jan -1.8 16:40:41 10° SSW 16:42:24 21° S 16:42:24 21° S visible
24 Jan -2.0 15:53:10 10° SSW 15:55:40 19° SSE 15:56:28 18° SE visible
24 Jan -0.9 17:28:42 10° WSW 17:29:24 15° WSW 17:29:24 15° WSW visible
25 Jan -1.5 15:05:55 10° S 15:07:50 14° SE 15:09:45 10° ESE visible
25 Jan -2.6 16:40:49 10° SW 16:43:24 35° S 16:43:24 35° S visible
26 Jan -2.6 15:53:00 10° SW 15:56:03 31° SSE 15:57:22 23° ESE visible
26 Jan -1.1 17:29:12 10° WSW 17:30:18 19° WSW 17:30:18 19° WSW visible
27 Jan -2.1 15:05:18 10° SSW 15:08:07 25° SSE 15:10:57 10° E visible
27 Jan -3.2 16:41:13 10° WSW 16:44:13 49° SSW 16:44:13 49° SSW visible
